International Telecommunication Union   ITU
عربي  |  中文  |  Español  |  Français  |  Русский
 
 Advanced Search Advanced Search Site map Contact us Print version
  Home : ITU-R : Space Services : SNL : Bringing into use
Radiocommunication Sector (ITU-R)  
Bringing into use of satellite network frequency assignments 
Bringing into use of satellite network frequency assignments

This table gives information about the date of bringing into use of planned and non-planned satellite network frequency assignments.

The notified frequency assignments appear in this list after their publication in Part I-S of the BR IFIC.

The Bureau is also publishing bringing into use information submitted in conjunction with a submission under § 4.1.12/4.2.16 of Appendices 30 and 30A (Part B) or § 6.17 of Appendix 30B (A6B).

Please note that this table is for information only. The official confirmation of bringing into use is the publication in PART I-S and PART II-S of the BR  IFIC.

For more information about the procedure of bringing into use, please refer to the Circular letter CR/343. 

Meaning of the symbol in the column "Status":

  N : Not yet confirmed, the date in the column "Date of bringing into use" is the foreseen date
  I : Initial information on bringing into use
  C : Confirmed brought into use, No. 11.44B conditions fullfilled.

For any comments or information,  please contact us 

Last update of the database: 07.08.2014 - The update is done normally every 2 weeks.

Your query :  All networks
Query the database  - Print version  - Explanations  - Export in txt format  - Export in Excel format 

Total line = 2334/2334
Go to page : 123456789101112
Notice ID
(SNS)
Satellite Name
(SNL Part B)
ADMORGLong_nomDate of receipt
of the notice
Date of bringing
into use
StatusExpiry Date for
Bringing Into Use
PublicationProvision
up down up down up down  up down up down up down up down up down up down up down 
312500006 N-SAT-82E  J   82 06.11.2013 15.04.2013 C  Part I-S 11.2  
113500181 DELFI-N3XT  HOL  N-GSO 13.11.2013 21.11.2013 N 24.01.2019 Part II-S 11.2  
113500183 FUNCUBE-1  HOL  N-GSO 13.11.2013 10.11.2012 C  Part II-S 11.2  
113500182 TRITON1  HOL  N-GSO 13.11.2013 01.11.2012 C  Part II-S 11.2  
113500182 TRITON1  HOL  N-GSO 13.11.2013 01.01.2013 C  Part II-S 11.2  
313500195 B-SAT-1W  B   -48 14.11.2013 31.05.2013 C  Part I-S 11.2  
111500082 MKA-FKI  RUS  N-GSO 14.11.2013 01.06.2014 N 23.09.2016 Part II-S 11.2  
111500082 MKA-FKI  RUS  N-GSO 14.11.2013 23.09.2016 N 23.09.2016 Part II-S 11.2  
111500082 MKA-FKI  RUS  N-GSO 14.11.2013 23.09.2016 N 03.08.2017 Part II-S 11.2  
113500187 F-SAT-KU-E-7W  F   -7 19.11.2013 15.10.2013 C  Part II-S 11.2  
113500189 STSAT-3  KOR  N-GSO 19.11.2013 21.11.2013 C  Part II-S 11.2  
113500214 USGAE-7M  USA  -68 19.11.2013 17.03.2013 N 18.03.2016 Part I-S 11.2  
113500188 ITF-1  J   N-GSO 20.11.2013 14.02.2014 N 20.10.2018 Part II-S 11.2  
108501139 TERRASAR  D   N-GSO 21.11.2013 31.05.2007 C  Part II-S 11.2  
108501139 TERRASAR  D   N-GSO 21.11.2013 15.06.2007 C  Part II-S 11.2  
108501139 TERRASAR  D   N-GSO 21.11.2013 30.09.2009 C  Part II-S 11.2  
108501139 TERRASAR  D   N-GSO 21.11.2013 21.10.2009 C  Part II-S 11.2  
108501139 TERRASAR  D   N-GSO 21.11.2013 21.06.2010 C  Part II-S 11.2  
113570011 VSSRD-2M  RUS  167 22.11.2013 25.07.2013 C  Part II-S A30B#8.1  
112500145 ASIASAT-CKZ  CHN  105.5 03.12.2013 24.04.2012 C  Part II-S 11.2  
309500491 PALAPA-C3-K  INS  118 11.12.2013 15.07.2006 C  Part I-S 11.2  
290500001 PALAPA-B3  INS  118 11.12.2013 30.04.1990 C  Part I-S 11.2  
290500001 PALAPA-B3  INS  118 11.12.2013 01.12.2000 C  Part I-S 11.2  
290500001 PALAPA-B3  INS  118 11.12.2013 01.01.2013 C  Part I-S 11.2  
113500185 LITUANICASAT-1  LTU  N-GSO 11.12.2013 15.01.2014 N 06.02.2020 Part II-S 11.2  
110500357 KAZSAT2  KAZ  86.5 12.12.2013 26.11.2011 C  Part II-S 11.2  
110500357 KAZSAT2  KAZ  86.5 12.12.2013 18.02.2012 C  Part II-S 11.2  
113570013 SIRIUS-30B-5E-3  S   12.12.2013 01.10.2013 C  Part II-S A30B#8.1  
113500201 PACIFISAT-9  PNG  116.1 18.12.2013 20.08.2013 C  Part I-S 11.2  
113560020 SIRIUS-6-BSS  S   4.8 19.12.2013 01.11.2013 C  Part II-S 5.1.2  
113500202 N-SAT-154E  J   154 25.12.2013 17.02.2016 N 17.02.2016 Part I-S 11.2  
313500204 ALOS-2  J   N-GSO 25.12.2013 24.05.2014 C  Part I-S 11.2  
111500122 KAZSAT1M  KAZ  58.5 27.12.2013 19.12.2011 C  Part II-S 11.2  
111500125 KAZSAT2M  KAZ  86.5 30.12.2013 26.11.2011 C  Part II-S 11.2  
113500033 GC-1  CHN  N-GSO 08.01.2014 26.04.2013 C  Part II-S 11.2  
107500633 MEASAT-46E  MLA  46 10.01.2014 19.12.2007 C  Part II-S 11.2  
114560001 CAN-BSS1X  CAN  -82 10.01.2014 12.09.2013 C  Part II-S 5.1.2/5.1.6  
114560002 CAN-BSS2X  CAN  -91.1 13.01.2014 15.09.2013 C  Part II-S 5.1.2/5.1.6  
113500076 B-SAT-1Q  B   -61 13.01.2014 10.04.2013 C  Part II-S 11.2  
114500009 VOLNA-3R  RUS  -11 13.01.2014 11.02.2013 C  Part II-S 11.2  
114500008 VOLNA-5R  RUS  96.5 13.01.2014 11.02.2013 C  Part II-S 11.2  
114500015 SIRIUS-5E-2  S   20.01.2014 02.09.2010 C  Part I-S 11.2  
114500015 SIRIUS-5E-2  S   20.01.2014 08.10.2012 C  Part I-S 11.2  
114500011 DZZ-HR  KAZ  N-GSO 20.01.2014 01.01.2015 N 13.01.2019 Part II-S 11.2  
114560003 GRC15002  GRC  39 22.01.2014 18.10.2013 C  Part II-S 5.1.2  
114560004 GRC15002  GRC  39 22.01.2014 18.10.2013 C  Part II-S 5.1.6  
108500022 N-SAT-143.72E  J   143.72 24.01.2014 24.11.2008 C  Part II-S 11.2  
114500013 CHINASAT-ROUTE7  CHN  115.5 28.01.2014 15.10.2013 N 26.02.2014 Part I-S 11.2  
114500013 CHINASAT-ROUTE7  CHN  115.5 28.01.2014 15.10.2013 C  Part I-S 11.2  
114500016 N-SAT2-162E  J   162 28.01.2014 17.02.2016 N 17.02.2016 Part I-S 11.2  
114500014 M3MSAT  CAN  N-GSO 30.01.2014 01.03.2014 N 05.10.2018 Part I-S 11.2  
295500170 KOREASAT-1  KOR  116 03.02.2014 05.02.1996 C  Part I-S 11.2  
295500170 KOREASAT-1  KOR  116 03.02.2014 15.11.1999 C  Part I-S 11.2  
114500018 MMI  IND  N-GSO 04.02.2014 05.11.2013 C  Part II-S 11.2  
114500025 POTOK-ISS  RUS  N-GSO 06.02.2014 15.05.2015 N 13.12.2018 Part II-S 11.2  
314500022 CSDRN-M  RUS  95 06.02.2014 26.06.2012 C  Part I-S 11.2  
314500022 CSDRN-M  RUS  95 06.02.2014 15.05.2015 N 06.02.2019 Part I-S 11.2  
314500023 VSSRD-2M  RUS  167 06.02.2014 23.12.2012 C  Part I-S 11.2  
314500023 VSSRD-2M  RUS  167 06.02.2014 15.05.2015 N 06.02.2019 Part I-S 11.2  
314500024 WSDRN-M  RUS  -16 06.02.2014 12.12.2012 C  Part I-S 11.2  
314500024 WSDRN-M  RUS  -16 06.02.2014 15.05.2015 N 06.02.2019 Part I-S 11.2  
314500020 YAHSAT  UAE  52.5 10.02.2014 22.04.2011 C  Part I-S 11.2  
312500235 EXPRESS-5KA  RUS  53 10.02.2014 16.06.2014 N 11.12.2015 Part I-S 11.2  
114500028 LUX-G6-12  LUX  43.5 11.02.2014 15.10.2013 C  Part I-S 11.2  
114500027 HODOYOSHI-3-4  J   N-GSO 12.02.2014 01.05.2014 N 28.12.2019 Part II-S 11.2  
314500026 NILESAT-103  EGY  -7 16.02.2014 01.12.2012 C  Part I-S 11.2  
312500236 EXPRESS-6KA  RUS  80 18.02.2014 16.02.2015 N 13.03.2015 Part I-S 11.2  
314500029 USNN-3  USA  -127 18.02.2014 18.03.2013 C  Part I-S 11.2  
100500160 EXPRESS-7  RUS  90 19.02.2014 06.09.1999 C  Part II-S 11.2  
100500160 EXPRESS-7  RUS  90 19.02.2014 10.09.1999 C  Part II-S 11.2  
100500160 EXPRESS-7  RUS  90 19.02.2014 01.05.2005 C  Part II-S 11.2  
114500030 NSS-BSS 95E TTC  HOL  95 19.02.2014 01.07.2013 N 23.03.2017 Part I-S 11.2  
103500327 EUTELSAT 3-4E  F  EUT 20.02.2014 06.08.2002 C  Part II-S 11.2  
101500079 EUTELSAT 2-4E  F  EUT 20.02.2014 22.03.2000 C  Part II-S 11.2  
114500056 TURKSAT-50E-B  TUR  50 22.02.2014 23.02.2014 C  Part I-S 11.2  
103500133 JCSAT-1R  J   150 27.02.2014 17.02.1997 C  Part II-S 11.2  
103500133 JCSAT-1R  J   150 27.02.2014 31.12.2003 C  Part II-S 11.2  
103500133 JCSAT-1R  J   150 27.02.2014 01.12.2005 C  Part II-S 11.2  
98500032 EMU-SSCS  USA  N-GSO 06.03.2014 01.12.1998 C  Part II-S 11.2  
114500037 AMS-4-65E  ISR  65 10.03.2014 23.12.2013 C  Part I-S 11.2  
114500038 LUX-G5-25  LUX  108.2 13.03.2014 01.01.2013 C  Part I-S 11.2  
114500038 LUX-G5-25  LUX  108.2 13.03.2014 04.01.2013 C  Part I-S 11.2  
114500002 MICROSCOPE  F   N-GSO 17.03.2014 01.04.2016 N 10.07.2020 Part I-S 11.2  
314500039 ARABSAT 7F-44.5E  ARS ARB 44.5 17.03.2014 10.04.2013 N 24.11.2015 Part I-S 11.2  
114500042 CHINASAT-ROUTE8  CHN  125 20.03.2014 09.04.2013 C  Part I-S 11.2  
114500042 CHINASAT-ROUTE8  CHN  125 20.03.2014 26.02.2014 C  Part I-S 11.2  
114500043 CHINASAT-ROUTE15  CHN  163 20.03.2014 09.05.2013 C  Part I-S 11.2  
290504230 INSAT-2(93.5)  IND  93.5 20.03.2014 07.01.1994 C  Part I-S 11.2  
114500044 INDOSTAR-110E  INS  108.2 25.03.2014 01.01.2014 C  Part I-S 11.2  
314500047 CTDRS-2-167E  CHN  167 26.03.2014 02.11.2013 C  Part I-S 11.2  
114500052 SOCRATES  J   N-GSO 31.03.2014 31.03.2014 C  Part I-S 11.2  
114500041 INSIGHT  USA  N-GSO 01.04.2014 01.02.2016 N 18.07.2020 Part I-S 11.2  
314500060 THAICOM-C1  THA  50.5 04.04.2014 18.07.2003 C  Part I-S 11.2  
114500046 AMS-4-67.25E  ISR  67.25 07.04.2014 17.09.2013 C  Part I-S 11.2  
114500050 LXS-AIS  LUX  N-GSO 09.04.2014 01.12.2008 C  Part I-S 11.2  
114500051 AM-SAT-108.2E-G  G   108.2 14.04.2014 01.01.2013 C  Part I-S 11.2  
114500051 AM-SAT-108.2E-G  G   108.2 14.04.2014 04.01.2013 C  Part I-S 11.2  
114500045 LITSAT-1  LTU  N-GSO 15.04.2014 28.02.2014 N 23.07.2020 Part I-S 11.2  
114570004 MEXSAT 113 AP30B  MEX  -113 23.04.2014 15.11.2014 N 26.11.2019 Part II-S A30B#8.1  
114500054 CHINASAT-ROUTE1  CHN  51.5 28.04.2014 15.01.2013 C  Part I-S 11.2  
114560005 USABSS-29  USA  85.15 29.04.2014 01.02.2015 N 11.04.2015 Part II-S 5.1.2  
114560005 USABSS-29  USA  85.15 29.04.2014 30.12.2013 C  Part II-S 5.1.2  
313500141 CHNSAT-98E  CHN  98.2 30.04.2014 03.06.2012 C  Part I-S 11.2  
114500058 PALAPA-C4-A  INS  150.5 05.05.2014 20.01.2014 N 07.05.2014 Part I-S 11.2  
114500058 PALAPA-C4-A  INS  150.5 05.05.2014 20.01.2014 C  Part I-S 11.2  
114500076 INMARSAT-XL1  G   25 07.05.2014 07.01.2014 N 20.06.2015 Part I-S 11.2  
314500059 CONNECT  USA  N-GSO 12.05.2014 27.07.2012 N 19.04.2017 Part I-S 11.2  
314500059 CONNECT  USA  N-GSO 12.05.2014 27.07.2012 C  Part I-S 11.2  
314500059 CONNECT  USA  N-GSO 12.05.2014 15.11.2013 N 19.04.2017 Part I-S 11.2  
314500001 GEO-IK-2  RUS  N-GSO 12.05.2014 01.09.1998 C  Part I-S 11.2  
314500001 GEO-IK-2  RUS  N-GSO 12.05.2014 15.12.2015 N 02.09.2020 Part I-S 11.2  
314500070 BRITE-PL  POL  N-GSO 15.05.2014 01.12.2013 C  Part I-S 11.2  
114500062 IOMSAT-KA-63W  G   -63 15.05.2014 19.02.2014 I 04.08.2015 Part I-S 11.2  
114500063 UKSAT-14  G   -107 19.05.2014 23.07.2012 C  Part I-S 11.2  
114500066 B-SAT-1S  B   -75 29.05.2014 01.07.2013 C  Part I-S 11.2  
113570007 MCO-FSS-52E  MCO  52 30.05.2014 05.06.2013 C  Part II-S A30B#8.1  
114500067 ENSAT-13E  RUS  13 02.06.2014 18.11.2016 N 11.04.2018 Part I-S 11.2  
114500067 ENSAT-13E  RUS  13 02.06.2014 18.11.2016 N 13.02.2020 Part I-S 11.2  
114500068 ENSAT-14.5E  RUS  14.5 02.06.2014 18.11.2016 N 11.04.2018 Part I-S 11.2  
114500068 ENSAT-14.5E  RUS  14.5 02.06.2014 18.11.2016 N 13.02.2020 Part I-S 11.2  
114500069 ENSAT-23E  RUS  23 02.06.2014 18.11.2016 N 11.04.2018 Part I-S 11.2  
114500069 ENSAT-23E  RUS  23 02.06.2014 18.11.2016 N 13.02.2020 Part I-S 11.2  
114500075 INMARSAT-4A 25E  G   25 07.06.2014 07.01.2014 N 25.06.2014 Part I-S 11.2  
314500071 XMM  F  ESA N-GSO 13.06.2014 10.12.1999 C  Part I-S 11.2  
114500078 INMARSAT-4A 98W  G   -98 17.06.2014 17.02.2014 C  Part I-S 11.2  
104500214 USASAT 26G  USA  -58 18.06.2014 28.08.1997 C  Part II-S A30B#8.1  
114500079 IRIS-2A  USA  -100 24.06.2014 01.03.2014 N 23.06.2018 Part I-S 11.2  
303500169 SUPERBIRD-C  J   144 01.07.2014 28.07.1997 C  Part I-S 11.2  
303500169 SUPERBIRD-C  J   144 01.07.2014 03.06.2000 C  Part I-S 11.2  
297500365 N-SAT-146  J   144 01.07.2014 28.07.1997 C  Part I-S 11.2  
114500032 AALTO-1  FIN  N-GSO 07.07.2014 01.09.2014 N 16.10.2020 Part I-S 11.2  
301500500 DFH-3-OC  CHN  87.5 09.07.2014 31.10.1997 C  Part I-S 11.2  
114500084 HAYABUSA2  J   N-GSO 10.07.2014 01.12.2014 N 22.01.2020 Part I-S 11.2  
310500265 TISAT-1  SUI  N-GSO 11.07.2014 15.06.2010 C  Part I-S 11.2  
Total line = 2334/2334
Go to page : 123456789101112

 

Top - Feedback - Contact us -  Copyright © ITU 2014 All Rights Reserved
Contact for this page : Webmaster
Updated : 2014-08-20